RH
62 61 58 57 58 55 37 44 42 47 63 48 47 20 12 11 12 11 13 15 60 84 98 100 99 93 88
66 65 65 63 63 63 64 52 43 46 59 65 66 46 16 12 12 11 10 14 28 78 89 100 100 95 88
69 69 68 66 65 66 68 65 59 53 53 58 66 54 42 21 14 14 11 10 12 49 88 100 100 98 93
66 66 65 64 65 67 66 67 67 64 59 58 67 68 68 57 30 31 17 13 11 16 74 94 100 99 95
73 69 70 70 70 69 71 71 71 65 70 70 65 61 64 63 46 42 18 19 22 11 37 83 100 100 98
82 81 79 77 75 72 74 75 75 69 78 76 73 66 60 59 60 46 27 36 72 20 16 66 92 100 100
80 82 82 79 78 80 86 82 80 77 80 82 77 75 68 68 61 58 57 67 77 73 35 39 82 99 100
66 68 69 69 71 73 74 78 81 79 78 82 74 73 71 68 70 56 74 80 78 78 84 45 72 100 100
72 73 76 78 78 86 98 94 83 74 73 74 73 75 70 62 62 85 74 72 72 54 77 84 75 100 100
68 68 71 74 73 76 82 88 87 87 80 75 80 77 86 66 76 70 73 70 71 50 42 77 97 99 100
73 74 77 78 77 77 79 81 85 88 80 77 93 84 76 72 70 72 72 76 70 55 56 54 76 96 100
95 91 85 85 78 76 76 78 82 84 82 83 81 88 91 90 85 73 76 79 73 76 70 70 63 88 100
83 80 77 73 70 72 78 82 81 80 82 90 91 88 92 93 88 82 79 78 74 72 89 70 66 75 95
74 72 70 72 75 75 78 83 87 93 73 91 95 93 100 98 92 89 82 83 77 74 84 79 67 59 68
69 74 77 77 80 80 80 85 85 86 92 82 95 99 100 94 96 94 93 90 81 80 88 87 81 67 56
72 75 78 79 80 79 81 89 92 91 90 83 90 98 99 95 83 92 96 96 86 80 86 87 90 73 66
77 78 78 79 76 79 81 86 87 89 88 86 92 89 93 88 76 73 82 88 88 90 84 88 93 98 85
Wind_Speed
17 19 20 20 19 24 26 23 23 20 19 23 22 22 23 24 23 24 24 19 16 15 12 15 29 24 18
25 21 18 19 20 20 19 22 23 21 21 20 20 20 21 20 21 23 23 23 18 17 13 13 31 26 19
20 23 22 19 19 20 19 19 16 19 21 19 19 22 20 19 20 20 22 24 22 19 16 14 29 25 22
17 20 20 20 19 19 18 17 19 20 22 21 18 16 20 20 19 20 21 24 22 21 17 16 19 30 26
19 19 21 20 19 20 21 20 20 19 13 14 22 25 22 20 21 20 23 23 24 20 16 15 12 32 26
19 19 19 20 20 19 20 19 16 16 20 21 20 27 26 22 20 23 23 23 22 22 19 14 14 30 30
21 21 22 22 24 23 19 18 19 21 21 24 22 24 24 21 22 22 21 21 22 22 19 16 15 18 37
18 19 19 19 19 21 22 24 25 25 21 24 22 22 24 27 23 20 17 17 19 20 19 17 16 14 37
22 23 23 23 23 24 22 20 21 21 17 20 21 19 24 26 13 3 10 13 18 19 17 18 14 14 30
22 22 21 22 20 21 23 20 20 20 19 18 17 12 6 10 8 12 17 16 19 20 18 15 15 14 21
23 22 21 21 21 23 22 21 20 20 21 20 13 15 15 18 22 21 21 20 24 26 20 16 13 15 13
21 21 21 20 22 21 20 21 21 22 23 20 17 15 14 15 16 19 21 23 22 19 24 21 14 14 16
19 19 19 19 19 19 20 20 23 23 23 22 22 24 21 21 19 21 24 23 23 16 14 21 21 15 16
18 20 21 21 20 20 20 18 18 20 21 20 21 23 21 22 21 22 21 16 15 22 20 23 23 18 15
20 20 20 19 20 20 19 17 16 17 18 19 19 20 20 21 20 20 20 20 18 22 18 20 23 21 18
18 19 18 17 18 19 17 19 18 18 20 19 18 15 17 20 21 24 22 22 20 20 18 18 23 20 19
18 19 19 19 20 18 18 18 19 20 21 21 19 18 10 10 16 18 23 20 19 18 16 16 18 22 21
Wind_Direction
294 303 308 314 315 316 323 328 326 331 332 334 339 342 342 346 350 348 349 339 325 321 326 237 218 207 208
295 303 307 311 312 312 314 320 320 327 325 330 332 333 338 338 344 344 342 343 331 325 294 279 217 211 205
289 300 304 310 313 312 312 317 323 316 320 325 324 330 336 336 335 340 340 337 334 323 326 313 206 209 209
284 288 298 307 310 308 314 320 317 317 313 317 324 326 326 330 335 336 339 333 332 326 317 320 219 210 206
282 285 287 296 302 308 306 309 311 313 322 327 323 323 329 325 331 324 332 334 332 328 313 305 267 213 206
281 283 286 290 293 295 298 307 312 309 331 321 323 314 315 327 317 323 328 331 331 331 319 293 300 214 211
282 282 285 287 291 294 299 296 291 295 306 303 308 305 310 311 311 320 326 323 329 335 323 293 295 250 214
272 277 280 285 285 285 286 286 284 286 286 282 294 294 303 307 303 312 306 317 326 331 336 313 293 263 213
272 274 274 276 277 278 273 272 273 276 278 273 287 295 300 307 324 313 318 332 330 328 328 333 300 277 222
279 277 274 271 272 270 273 271 276 289 278 266 274 291 319 304 356 337 332 336 329 331 329 322 321 300 222
279 277 275 273 269 267 262 262 266 265 274 278 285 283 271 277 291 302 317 322 325 327 324 316 306 308 242
278 271 268 264 263 265 264 263 260 263 274 273 271 271 276 283 289 296 299 310 319 310 317 314 304 304 261
276 274 272 272 273 272 270 267 265 267 267 265 263 264 262 267 277 283 295 300 303 310 314 318 314 311 316
283 283 282 280 274 269 265 262 258 257 269 268 261 257 259 260 266 275 278 273 285 295 304 304 306 298 295
280 281 279 277 278 272 265 259 261 266 262 265 258 254 255 261 267 267 274 273 273 286 293 299 297 296 289
281 280 279 279 277 275 268 254 248 250 252 259 252 253 250 255 253 259 265 266 268 275 279 286 293 296 293
278 277 277 276 276 275 267 261 257 253 254 252 241 233 250 262 262 257 250 259 262 268 274 272 281 292 303